Hourly Weather Roundup
Issued by NWS Central Illinois

Home | Current Version | Previous Version | Text Only | Print | Product List | Glossary On
Versions: 1 2 3 4 5 6 7 8 9 10 11 12 13 14 15 16 17 18 19 20 21 22 23 24 25 26 27 28 29 30 31 32 33 34 35 36 37 38 39 40 41 42 43 44 45 46 47 48 49 50
000
NZUS43 KILX 300010
HWRILX

AREA WEATHER ROUNDUP
NATIONAL WEATHER SERVICE, LINCOLN IL
700 PM CDT FRI AUG 29 2014


CITY           SKY/WX    TMP DP  RH WIND       PRES   REMARKS
BLOOMINGTON    PTCLDY    80  69  69 S8        29.90R HX  83
CHAMPAIGN      CLEAR     81  69  67 S9        29.90S HX  84
6HR MIN TEMP:  77; 6HR MAX TEMP:  87; 6HR PCP: TRACE;

DECATUR        CLEAR     83  70  64 S10       29.89R HX  87
6HR MIN TEMP:  83; 6HR MAX TEMP:  89;

FLORA          PTCLDY    81  68  65 S7        29.91S HX  83
6HR MIN TEMP:  81; 6HR MAX TEMP:  88;

GALESBURG      CLOUDY    79  69  73 S7        29.84R HX  81
JACKSONVILLE   PTCLDY    84  69  59 SE8       29.85S HX  88
6HR MIN TEMP:  83; 6HR MAX TEMP:  90;

LACON          MOCLDY    76  69  79 CALM      29.85S
6HR MIN TEMP:  76; 6HR MAX TEMP:  86;

LAWRENCEVILLE  PTCLDY    82  71  69 SE6       29.93R HX  86
6HR MIN TEMP:  77; 6HR MAX TEMP:  90; 6HR PCP:  0.08;

LITCHFIELD     CLEAR     80  69  68 SE8       29.86F HX  83
$$


CITY           SKY/WX    TMP DP  RH WIND       PRES   REMARKS
LINCOLN        CLEAR     81  69  67 S5        29.84R HX  84
6HR MIN TEMP:  81; 6HR MAX TEMP:  89;

MACOMB         CLOUDY    77  69  77 SW18G31   29.88R
MATTOON        CLEAR     82  69  64 S5        29.90S HX  85
6HR MIN TEMP:  82; 6HR MAX TEMP:  88;

MT CARMEL AP   PTCLDY    86  70  58 CALM      29.92F HX  90
OLNEY-NOBLE AP CLEAR     82  72  69 CALM      29.92S HX  87
PARIS          PTCLDY    75  72  90 SE5       29.92F
6HR MIN TEMP:  75; 6HR MAX TEMP:  88; 6HR PCP:  0.09;

PEORIA         PTCLDY    75  71  87 CALM      29.86R FOG
6HR MIN TEMP:  73; 6HR MAX TEMP:  88; 6HR PCP:  0.27;

PONTIAC        PTCLDY    81  75  83 CALM      29.88S HX  86
RANTOUL        CLEAR     81  70  69 S8        29.91S HX  84
6HR MIN TEMP:  81; 6HR MAX TEMP:  87;

ROBINSON       PTCLDY    82  75  80 SE5       29.93S HX  88
6HR MIN TEMP:  79; 6HR MAX TEMP:  91; 6HR PCP:  0.04;

SPRINGFIELD    CLEAR     83  68  60 S9        29.86R HX  86
6HR MIN TEMP:  83; 6HR MAX TEMP:  89;

TAYLORVILLE    CLEAR     79  70  73 SE9       29.88R HX  81
$$

...REGIONAL REPORTS...


CITY           SKY/WX    TMP DP  RH WIND       PRES   REMARKS
CHICAGO O`HARE MOCLDY    82  70  66 S14       29.88S HX  86
KANKAKEE       CLEAR     77  72  84 E8        29.90F
MOLINE         CLOUDY    80  71  74 SE6       29.81S HX  84
MOUNT VERNON   CLEAR     82  68  61 S3        29.91S HX  85
PITTSFIELD     TSTM      74  71  89 S3        29.87R
QUINCY         MOCLDY    73  71  93 SE5       29.84R
ROCKFORD       PTCLDY    80  71  74 S8        29.86F HX  84
$$


CITY           SKY/WX    TMP DP  RH WIND       PRES   REMARKS
BURLINGTON     CLOUDY    72  70  93 S6        29.83S
CEDAR RAPIDS   CLOUDY    69  69 100 W5        29.79F
DES MOINES     CLOUDY    72  68  87 SW6       29.77F
KIRKSVILLE     MOCLDY    78  71  79 SW9       29.83S HX  80
OTTUMWA        NOT AVBL
ST LOUIS       MOCLDY    85  67  54 W12       29.86R HX  87
$$


CITY           SKY/WX    TMP DP  RH WIND       PRES   REMARKS
TERRE HAUTE    MOCLDY    77  71  82 S6        29.93S
EVANSVILLE     CLEAR     86  65  49 S7        29.94R HX  88
INDIANAPOLIS   MOCLDY    82  71  69 S8        29.95R HX  86
LAFAYETTE      CLOUDY    77  69  76 SW12G17   29.94S
MADISON        PTCLDY    82  69  64 S12       29.82S HX  85
MILWAUKEE      PTCLDY    77  70  79 S14       29.86F
$$





USA.gov is the U.S. government's official web portal to all federal, state and local government web resources and services.